| time (UTC) | temp F | wind direction | speed MPH | gust MPH | rain 1hr in | rain 24hr in | rain mn in | humidity % | barometer mb |
| 20260901164831 | 63 | 283 | 2.0 | 3.0 | 0.00 | 0.07 | 0.07 | 68 | 1022.3 |
| 20260901164325 | 63 | 280 | 1.0 | 3.0 | 0.00 | 0.07 | 0.07 | 68 | 1022.2 |
| 20260901163820 | 62 | 317 | 2.0 | 2.0 | 0.00 | 0.07 | 0.07 | 70 | 1022.2 |
| 20260901163315 | 62 | 34 | 1.0 | 1.0 | 0.00 | 0.07 | 0.07 | 73 | 1022.3 |
| 20260901162810 | 62 | 39 | 2.0 | 2.0 | 0.00 | 0.07 | 0.07 | 70 | 1022.2 |
| 20260901162309 | 61 | 197 | 1.0 | 2.0 | 0.00 | 0.07 | 0.07 | 71 | 1022.3 |
| 20260901161808 | 61 | 187 | 1.0 | 1.0 | 0.00 | 0.07 | 0.07 | 70 | 1022.4 |
| 20260901161303 | 61 | 187 | 2.0 | 2.0 | 0.00 | 0.07 | 0.07 | 73 | 1022.3 |
| 20260901160758 | 59 | 186 | 1.0 | 1.0 | 0.00 | 0.07 | 0.07 | 76 | 1022.3 |
| 20260901160254 | 58 | 186 | 1.0 | 1.0 | 0.00 | 0.07 | 0.07 | 78 | 1022.7 |
| 20260901155753 | 57 | 185 | 0.0 | 1.0 | 0.00 | 0.07 | 0.07 | 83 | 1022.3 |
| 20260901155248 | 57 | 185 | 0.0 | 1.0 | 0.00 | 0.07 | 0.07 | 81 | 1022.3 |
| 20260901154744 | 57 | 185 | 1.0 | 1.0 | 0.00 | 0.07 | 0.07 | 82 | 1022.5 |
| 20260901154238 | 57 | 187 | 1.0 | 1.0 | 0.00 | 0.07 | 0.07 | 82 | 1022.5 |
| 20260901153734 | 57 | 180 | 0.0 | 0.0 | 0.00 | 0.07 | 0.07 | 83 | 1022.3 |
| 20260901153233 | 57 | 181 | 2.0 | 2.0 | 0.00 | 0.07 | 0.07 | 80 | 1022.5 |
| 20260901152732 | 58 | 174 | 0.0 | 1.0 | 0.00 | 0.07 | 0.07 | 81 | 1022.7 |
| 20260901152231 | 58 | 175 | 1.0 | 1.0 | 0.00 | 0.07 | 0.07 | 80 | 1022.4 |
| 20260901151727 | 57 | 173 | 0.0 | 1.0 | 0.00 | 0.07 | 0.07 | 83 | 1022.5 |
| 20260901151221 | 57 | 173 | 0.0 | 0.0 | 0.00 | 0.07 | 0.07 | 84 | 1022.3 |
| 20260901150720 | 57 | 173 | 0.0 | 0.0 | 0.00 | 0.07 | 0.07 | 82 | 1022.1 |
| 20260901150218 | 57 | 173 | 0.0 | 0.0 | 0.00 | 0.07 | 0.07 | 84 | 1022.3 |
| 20260901145717 | 56 | 172 | 0.0 | 0.0 | 0.00 | 0.07 | 0.07 | 86 | 1022.3 |
| 20260901145211 | 55 | 172 | 0.0 | 0.0 | 0.00 | 0.07 | 0.07 | 89 | 1022.4 |
| 20260901144707 | 55 | 173 | 0.0 | 0.0 | 0.00 | 0.07 | 0.07 | 90 | 1022.3 |
| 20260901144202 | 55 | 173 | 0.0 | 1.0 | 0.00 | 0.07 | 0.07 | 90 | 1022.4 |
| 20260901143657 | 54 | 173 | 0.0 | 0.0 | 0.00 | 0.07 | 0.07 | 91 | 1022.5 |
| 20260901143154 | 54 | 173 | 1.0 | 1.0 | 0.00 | 0.07 | 0.07 | 91 | 1022.3 |
| 20260901142650 | 54 | 172 | 0.0 | 0.0 | 0.00 | 0.07 | 0.07 | 93 | 1022.4 |
| 20260901142148 | 54 | 172 | 0.0 | 0.0 | 0.00 | 0.07 | 0.07 | 94 | 1022.3 |
| 20260901141643 | 53 | 172 | 0.0 | 0.0 | 0.00 | 0.07 | 0.07 | 94 | 1022.3 |
| 20260901141143 | 53 | 172 | 0.0 | 0.0 | 0.00 | 0.07 | 0.07 | 95 | 1022.3 |
| 20260901140642 | 53 | 172 | 0.0 | 0.0 | 0.00 | 0.07 | 0.07 | 95 | 1022.2 |
| 20260901140141 | 53 | 172 | 0.0 | 0.0 | 0.00 | 0.07 | 0.07 | 95 | 1022.2 |
| 20260901135636 | 53 | 172 | 0.0 | 0.0 | 0.00 | 0.07 | 0.07 | 95 | 1022.1 |
| 20260901135131 | 53 | 172 | 0.0 | 0.0 | 0.00 | 0.07 | 0.07 | 96 | 1021.9 |
| 20260901134627 | 53 | 172 | 0.0 | 0.0 | 0.00 | 0.07 | 0.07 | 96 | 1021.9 |
| 20260901134122 | 53 | 172 | 0.0 | 0.0 | 0.00 | 0.07 | 0.07 | 96 | 1022.1 |
| 20260901133621 | 53 | 172 | 0.0 | 0.0 | 0.00 | 0.07 | 0.07 | 96 | 1022.1 |
| 20260901133120 | 53 | 172 | 0.0 | 0.0 | 0.00 | 0.07 | 0.07 | 96 | 1022.1 |
| 20260901132615 | 53 | 172 | 0.0 | 0.0 | 0.00 | 0.07 | 0.07 | 95 | 1021.8 |
| 20260901132114 | 53 | 172 | 0.0 | 0.0 | 0.00 | 0.07 | 0.07 | 95 | 1021.8 |
| 20260901131614 | 53 | 172 | 0.0 | 0.0 | 0.00 | 0.07 | 0.07 | 95 | 1021.9 |
| 20260901131108 | 53 | 172 | 0.0 | 0.0 | 0.00 | 0.07 | 0.07 | 95 | 1021.8 |
| 20260901130604 | 53 | 172 | 0.0 | 0.0 | 0.00 | 0.07 | 0.07 | 95 | 1021.5 |
| 20260901125600 | 53 | 172 | 0.0 | 0.0 | 0.00 | 0.07 | 0.07 | 95 | 1021.5 |
| 20260901125055 | 52 | 172 | 0.0 | 0.0 | 0.00 | 0.07 | 0.07 | 95 | 1021.6 |
| 20260901124550 | 53 | 172 | 0.0 | 0.0 | 0.00 | 0.07 | 0.07 | 95 | 1021.6 |
| 20260901124045 | 53 | 172 | 0.0 | 0.0 | 0.00 | 0.07 | 0.07 | 95 | 1021.7 |
| 20260901123540 | 52 | 172 | 0.0 | 0.0 | 0.00 | 0.07 | 0.07 | 95 | 1021.7 |
| 20260901123039 | 52 | 172 | 0.0 | 0.0 | 0.00 | 0.07 | 0.07 | 95 | 1021.8 |
| 20260901122538 | 52 | 172 | 0.0 | 0.0 | 0.00 | 0.07 | 0.07 | 95 | 1021.8 |
| 20260901122037 | 52 | 172 | 0.0 | 0.0 | 0.00 | 0.07 | 0.07 | 95 | 1021.7 |
| 20260901121532 | 52 | 172 | 0.0 | 0.0 | 0.00 | 0.07 | 0.07 | 95 | 1021.8 |
| 20260901121028 | 52 | 172 | 0.0 | 0.0 | 0.00 | 0.07 | 0.07 | 95 | 1022.1 |
| 20260901120527 | 52 | 172 | 0.0 | 0.0 | 0.00 | 0.07 | 0.07 | 94 | 1021.8 |
| 20260901120023 | 53 | 172 | 0.0 | 0.0 | 0.00 | 0.07 | 0.07 | 94 | 1021.6 |
| 20260901115518 | 52 | 172 | 0.0 | 0.0 | 0.00 | 0.07 | 0.07 | 94 | 1021.9 |
| 20260901115015 | 52 | 172 | 0.0 | 1.0 | 0.00 | 0.07 | 0.07 | 93 | 1021.7 |
| 20260901114511 | 53 | 172 | 0.0 | 0.0 | 0.00 | 0.07 | 0.07 | 93 | 1021.8 |
| 20260901114009 | 52 | 172 | 0.0 | 0.0 | 0.00 | 0.07 | 0.07 | 93 | 1021.7 |
| 20260901113508 | 53 | 172 | 0.0 | 0.0 | 0.05 | 0.07 | 0.07 | 93 | 1022.1 |
| 20260901113004 | 53 | 172 | 0.0 | 0.0 | 0.05 | 0.07 | 0.07 | 92 | 1021.9 |
| 20260901112458 | 53 | 172 | 0.0 | 0.0 | 0.07 | 0.06 | 0.06 | 92 | 1021.8 |
| 20260901111954 | 53 | 172 | 0.0 | 0.0 | 0.12 | 0.06 | 0.06 | 92 | 1021.7 |
| 20260901111452 | 53 | 172 | 0.0 | 0.0 | 0.12 | 0.05 | 0.05 | 92 | 1021.7 |
| 20260901110950 | 53 | 172 | 0.0 | 0.0 | 0.12 | 0.04 | 0.04 | 92 | 1021.8 |
| 20260901110446 | 53 | 172 | 0.0 | 0.0 | 0.05 | 0.03 | 0.03 | 91 | 1021.8 |
| 20260901105942 | 53 | 172 | 0.0 | 0.0 | 0.00 | 0.02 | 0.02 | 90 | 1021.9 |
| 20260901105438 | 53 | 172 | 0.0 | 0.0 | 0.00 | 0.02 | 0.02 | 91 | 1021.7 |
| 20260901104933 | 53 | 172 | 0.0 | 0.0 | 0.07 | 0.02 | 0.02 | 90 | 1021.8 |
| 20260901104428 | 53 | 172 | 0.0 | 0.0 | 0.07 | 0.02 | 0.02 | 90 | 1021.7 |
| 20260901103924 | 53 | 172 | 0.0 | 0.0 | 0.00 | 0.01 | 0.01 | 89 | 1021.8 |
| 20260901103424 | 54 | 172 | 0.0 | 0.0 | 0.05 | 0.01 | 0.01 | 88 | 1021.7 |
| 20260901102918 | 54 | 172 | 0.0 | 0.0 | 0.05 | 0.01 | 0.01 | 87 | 1022.1 |
| 20260901102413 | 54 | 172 | 0.0 | 1.0 | 0.00 | 0.00 | 0.00 | 85 | 1021.7 |
| 20260901101908 | 55 | 172 | 1.0 | 1.0 | 0.00 | 0.00 | 0.00 | 84 | 1022.2 |
| 20260901101403 | 55 | 173 | 1.0 | 1.0 | 0.00 | 0.00 | 0.00 | 82 | 1021.9 |
| 20260901100903 | 55 | 173 | 1.0 | 1.0 | 0.00 | 0.00 | 0.00 | 81 | 1021.8 |
| 20260901100357 | 55 | 173 | 0.0 | 0.0 | 0.00 | 0.00 | 0.00 | 82 | 1021.5 |
| 20260901095856 | 55 | 173 | 0.0 | 1.0 | 0.00 | 0.00 | 0.00 | 82 | 1021.8 |
| 20260901095354 | 55 | 173 | 0.0 | 0.0 | 0.00 | 0.00 | 0.00 | 82 | 1021.5 |
| 20260901094848 | 55 | 173 | 0.0 | 0.0 | 0.00 | 0.00 | 0.00 | 82 | 1021.5 |
| 20260901094343 | 55 | 173 | 0.0 | 1.0 | 0.00 | 0.00 | 0.00 | 81 | 1021.5 |
| 20260901093838 | 55 | 173 | 1.0 | 1.0 | 0.00 | 0.00 | 0.00 | 82 | 1021.2 |
| 20260901093337 | 55 | 173 | 0.0 | 0.0 | 0.00 | 0.00 | 0.00 | 81 | 1021.5 |
| 20260901092833 | 55 | 173 | 0.0 | 0.0 | 0.00 | 0.00 | 0.00 | 81 | 1021.1 |
| 20260901092329 | 55 | 173 | 0.0 | 0.0 | 0.00 | 0.00 | 0.00 | 81 | 1021.1 |
| 20260901091825 | 55 | 173 | 0.0 | 0.0 | 0.00 | 0.00 | 0.00 | 81 | 1021.1 |
| 20260901091324 | 55 | 172 | 1.0 | 1.0 | 0.00 | 0.00 | 0.00 | 81 | 1020.7 |
| 20260901090819 | 55 | 173 | 0.0 | 0.0 | 0.00 | 0.00 | 0.00 | 80 | 1020.7 |
| 20260901090314 | 55 | 173 | 0.0 | 1.0 | 0.00 | 0.00 | 0.00 | 80 | 1021.1 |
| 20260901085810 | 55 | 172 | 0.0 | 0.0 | 0.00 | 0.00 | 0.00 | 79 | 1020.9 |
| 20260901085306 | 55 | 172 | 0.0 | 0.0 | 0.00 | 0.00 | 0.00 | 79 | 1021.1 |
| 20260901084801 | 55 | 172 | 0.0 | 0.0 | 0.00 | 0.00 | 0.00 | 80 | 1021.1 |
| 20260901084257 | 55 | 172 | 0.0 | 0.0 | 0.00 | 0.00 | 0.00 | 80 | 1021.2 |
| 20260901083757 | 55 | 172 | 0.0 | 0.0 | 0.00 | 0.00 | 0.00 | 78 | 1021.3 |
| 20260901083252 | 55 | 172 | 0.0 | 0.0 | 0.00 | 0.00 | 0.00 | 78 | 1021.1 |
| 20260901082750 | 55 | 172 | 0.0 | 0.0 | 0.00 | 0.00 | 0.00 | 78 | 1021.6 |
| 20260901082245 | 56 | 172 | 0.0 | 0.0 | 0.00 | 0.00 | 0.00 | 77 | 1021.1 |
| 20260901081741 | 56 | 172 | 0.0 | 0.0 | 0.00 | 0.00 | 0.00 | 78 | 1021.6 |
| 20260901081240 | 56 | 172 | 0.0 | 0.0 | 0.00 | 0.00 | 0.00 | 77 | 1021.2 |
| 20260901080736 | 56 | 172 | 0.0 | 0.0 | 0.00 | 0.00 | 0.00 | 76 | 1021.3 |
| 20260901080235 | 56 | 172 | 0.0 | 0.0 | 0.00 | 0.00 | 0.00 | 76 | 1021.2 |
| 20260901075734 | 56 | 172 | 0.0 | 0.0 | 0.00 | 0.00 | 0.00 | 74 | 1021.1 |
| 20260901075230 | 56 | 172 | 0.0 | 1.0 | 0.00 | 0.00 | 0.00 | 75 | 1021.3 |
| 20260901074724 | 56 | 172 | 0.0 | 0.0 | 0.00 | 0.00 | 0.00 | 76 | 1021.6 |
| 20260901074219 | 57 | 172 | 0.0 | 0.0 | 0.00 | 0.00 | 0.00 | 76 | 1021.7 |
| 20260901073716 | 57 | 172 | 0.0 | 1.0 | 0.00 | 0.00 | 0.00 | 74 | 1021.7 |
| 20260901073211 | 57 | 172 | 0.0 | 1.0 | 0.00 | 0.00 | 0.00 | 73 | 1021.9 |
| 20260901072706 | 57 | 172 | 1.0 | 1.0 | 0.00 | 0.00 | 0.00 | 74 | 1021.8 |
| 20260901072201 | 57 | 172 | 0.0 | 1.0 | 0.00 | 0.00 | 0.00 | 70 | 1021.7 |
| 20260901071655 | 58 | 172 | 1.0 | 1.0 | 0.00 | 0.00 | 0.00 | 70 | 1021.9 |
| 20260901071154 | 58 | 172 | 1.0 | 1.0 | 0.00 | 0.00 | 0.00 | 68 | 1021.9 |
| 20260901070649 | 59 | 172 | 0.0 | 1.0 | 0.00 | 0.00 | 0.00 | 66 | 1021.8 |
| 20260901070144 | 59 | 166 | 1.0 | 1.0 | 0.00 | 0.00 | 0.00 | 63 | 1022.1 |
| 20260901065643 | 60 | 166 | 2.0 | 2.0 | 0.00 | 0.00 | 0.00 | 61 | 1022.2 |
| 20260901065138 | 60 | 163 | 2.0 | 2.0 | 0.00 | 0.00 | 0.00 | 58 | 1021.9 |
| 20260901064635 | 61 | 183 | 2.0 | 3.0 | 0.00 | 0.00 | 0.00 | 57 | 1022.1 |
| 20260901064132 | 61 | 200 | 3.0 | 3.0 | 0.00 | 0.00 | 0.00 | 56 | 1021.8 |
| 20260901063629 | 61 | 167 | 3.0 | 3.0 | 0.00 | 0.00 | 0.00 | 55 | 1021.9 |
| 20260901063124 | 61 | 164 | 2.0 | 3.0 | 0.00 | 0.00 | 0.00 | 55 | 1022.1 |
| 20260901062619 | 61 | 189 | 2.0 | 2.0 | 0.00 | 0.00 | 0.00 | 56 | 1022.2 |
| 20260901062116 | 60 | 180 | 1.0 | 2.0 | 0.00 | 0.00 | 0.00 | 57 | 1022.1 |
| 20260901061612 | 60 | 168 | 1.0 | 2.0 | 0.00 | 0.00 | 0.00 | 57 | 1022.2 |
| 20260901061111 | 61 | 157 | 2.0 | 3.0 | 0.00 | 0.00 | 0.00 | 57 | 1022.4 |
| 20260901060606 | 61 | 164 | 2.0 | 2.0 | 0.00 | 0.00 | 0.00 | 56 | 1022.2 |
| 20260901055556 | 61 | 155 | 2.0 | 2.0 | 0.00 | 0.00 | 0.00 | 57 | 1022.1 |
| 20260901055054 | 60 | 196 | 2.0 | 3.0 | 0.00 | 0.00 | 0.00 | 57 | 1022.1 |
| 20260901054550 | 61 | 164 | 1.0 | 2.0 | 0.00 | 0.00 | 0.00 | 59 | 1022.2 |
| 20260901054045 | 61 | 172 | 2.0 | 5.0 | 0.00 | 0.00 | 0.00 | 58 | 1022.2 |
| 20260901053541 | 61 | 171 | 2.0 | 2.0 | 0.00 | 0.00 | 0.00 | 56 | 1022.2 |
| 20260901053037 | 61 | 187 | 1.0 | 2.0 | 0.00 | 0.00 | 0.00 | 55 | 1022.2 |
| 20260901052537 | 62 | 187 | 1.0 | 2.0 | 0.00 | 0.00 | 0.00 | 55 | 1022.4 |
| 20260901052032 | 62 | 198 | 1.0 | 2.0 | 0.00 | 0.00 | 0.00 | 53 | 1022.8 |
| 20260901051527 | 62 | 186 | 1.0 | 3.0 | 0.00 | 0.00 | 0.00 | 52 | 1022.7 |
| 20260901051026 | 62 | 201 | 1.0 | 3.0 | 0.00 | 0.00 | 0.00 | 51 | 1022.7 |
| 20260901050521 | 62 | 196 | 2.0 | 2.0 | 0.00 | 0.00 | 0.00 | 51 | 1022.8 |
| 20260901050016 | 62 | 174 | 1.0 | 3.0 | 0.00 | 0.00 | 0.00 | 51 | 1022.5 |
| 20260901045511 | 62 | 168 | 2.0 | 2.0 | 0.00 | 0.00 | 0.00 | 51 | 1022.7 |
| 20260901045006 | 61 | 180 | 1.0 | 2.0 | 0.00 | 0.00 | 0.00 | 53 | 1022.7 |
| 20260901044502 | 61 | 179 | 2.0 | 2.0 | 0.00 | 0.00 | 0.00 | 56 | 1022.7 |
| 20260901043958 | 61 | 179 | 0.0 | 1.0 | 0.00 | 0.00 | 0.00 | 56 | 1022.7 |
| 20260901043453 | 61 | 179 | 1.0 | 1.0 | 0.00 | 0.00 | 0.00 | 59 | 1022.7 |
| 20260901042953 | 61 | 179 | 0.0 | 1.0 | 0.00 | 0.00 | 0.00 | 57 | 1022.5 |
| 20260901042447 | 62 | 179 | 0.0 | 1.0 | 0.00 | 0.00 | 0.00 | 55 | 1022.7 |
| 20260901041943 | 62 | 179 | 1.0 | 1.0 | 0.00 | 0.00 | 0.00 | 54 | 1022.2 |
| 20260901041438 | 62 | 145 | 2.0 | 2.0 | 0.00 | 0.00 | 0.00 | 52 | 1021.6 |
| 20260901040937 | 62 | 98 | 1.0 | 1.0 | 0.00 | 0.00 | 0.00 | 51 | 1021.3 |
| 20260901040433 | 62 | 161 | 0.0 | 5.0 | 0.00 | 0.00 | 0.00 | 50 | 1021.2 |
| 20260901035931 | 62 | 161 | 2.0 | 2.0 | 0.00 | 0.00 | 0.00 | 50 | 1021.2 |
| 20260901035430 | 62 | 65 | 1.0 | 3.0 | 0.00 | 0.00 | 0.00 | 50 | 1021.2 |
| 20260901034929 | 62 | 179 | 0.0 | 1.0 | 0.00 | 0.00 | 0.00 | 53 | 1021.0 |
| 20260901034424 | 62 | 176 | 0.0 | 1.0 | 0.00 | 0.00 | 0.00 | 51 | 1021.0 |
| 20260901033919 | 62 | 176 | 0.0 | 1.0 | 0.00 | 0.00 | 0.00 | 51 | 1021.2 |
| 20260901033418 | 62 | 176 | 0.0 | 1.0 | 0.00 | 0.00 | 0.00 | 51 | 1021.1 |
| 20260901032916 | 62 | 176 | 1.0 | 1.0 | 0.00 | 0.00 | 0.00 | 53 | 1021.2 |
| 20260901032416 | 62 | 175 | 1.0 | 1.0 | 0.00 | 0.00 | 0.00 | 54 | 1020.9 |
| 20260901031911 | 62 | 175 | 0.0 | 0.0 | 0.00 | 0.00 | 0.00 | 51 | 1021.1 |
| 20260901031407 | 62 | 175 | 0.0 | 0.0 | 0.00 | 0.00 | 0.00 | 52 | 1021.1 |
| 20260901030907 | 63 | 175 | 0.0 | 0.0 | 0.00 | 0.00 | 0.00 | 52 | 1021.3 |
| 20260901030403 | 63 | 176 | 0.0 | 1.0 | 0.00 | 0.00 | 0.00 | 50 | 1021.2 |
| 20260901025901 | 63 | 176 | 1.0 | 1.0 | 0.00 | 0.00 | 0.00 | 49 | 1021.0 |
| 20260901025356 | 63 | 176 | 1.0 | 2.0 | 0.00 | 0.00 | 0.00 | 49 | 1020.9 |
| 20260901024851 | 63 | 176 | 0.0 | 1.0 | 0.00 | 0.00 | 0.00 | 49 | 1020.9 |
| 20260901024350 | 63 | 176 | 0.0 | 2.0 | 0.00 | 0.00 | 0.00 | 50 | 1021.1 |
| 20260901023849 | 62 | 153 | 1.0 | 1.0 | 0.00 | 0.00 | 0.00 | 52 | 1020.9 |
| 20260901023344 | 63 | 152 | 1.0 | 1.0 | 0.00 | 0.00 | 0.00 | 52 | 1020.9 |
| 20260901022839 | 63 | 152 | 0.0 | 0.0 | 0.00 | 0.00 | 0.00 | 50 | 1020.3 |
| 20260901022335 | 63 | 152 | 1.0 | 1.0 | 0.00 | 0.00 | 0.00 | 48 | 1020.7 |
| 20260901021830 | 64 | 152 | 1.0 | 1.0 | 0.00 | 0.00 | 0.00 | 50 | 1020.9 |
| 20260901021325 | 64 | 152 | 0.0 | 1.0 | 0.00 | 0.00 | 0.00 | 49 | 1020.9 |
| 20260901020820 | 65 | 132 | 1.0 | 2.0 | 0.00 | 0.00 | 0.00 | 47 | 1020.9 |
| 20260901020315 | 65 | 156 | 1.0 | 2.0 | 0.00 | 0.00 | 0.00 | 46 | 1021.0 |
| 20260901015809 | 65 | 184 | 2.0 | 3.0 | 0.00 | 0.00 | 0.00 | 45 | 1020.7 |
| 20260901015306 | 65 | 202 | 2.0 | 3.0 | 0.00 | 0.00 | 0.00 | 44 | 1021.0 |
| 20260901014805 | 64 | 206 | 2.0 | 5.0 | 0.00 | 0.00 | 0.00 | 45 | 1021.2 |
| 20260901014301 | 64 | 158 | 1.0 | 1.0 | 0.00 | 0.00 | 0.00 | 52 | 1021.0 |
| 20260901013756 | 64 | 158 | 2.0 | 2.0 | 0.00 | 0.00 | 0.00 | 53 | 1021.0 |
| 20260901013252 | 64 | 159 | 0.0 | 0.0 | 0.00 | 0.00 | 0.00 | 52 | 1021.0 |
| 20260901012747 | 65 | 159 | 0.0 | 0.0 | 0.00 | 0.00 | 0.00 | 50 | 1021.1 |
| 20260901012247 | 65 | 159 | 0.0 | 0.0 | 0.00 | 0.00 | 0.00 | 48 | 1020.9 |
| 20260901011743 | 65 | 159 | 0.0 | 0.0 | 0.00 | 0.00 | 0.00 | 49 | 1021.0 |
| 20260901011238 | 66 | 159 | 0.0 | 0.0 | 0.00 | 0.00 | 0.00 | 49 | 1021.0 |
| 20260901010732 | 66 | 159 | 0.0 | 0.0 | 0.00 | 0.00 | 0.00 | 48 | 1021.2 |
| 20260901010227 | 66 | 159 | 0.0 | 1.0 | 0.00 | 0.00 | 0.00 | 46 | 1021.2 |
| 20260901005726 | 67 | 180 | 2.0 | 2.0 | 0.00 | 0.00 | 0.00 | 43 | 1021.5 |
| 20260901005221 | 67 | 115 | 0.0 | 0.0 | 0.00 | 0.00 | 0.00 | 43 | 1021.5 |
| 20260901004721 | 68 | 115 | 0.0 | 0.0 | 0.00 | 0.00 | 0.00 | 43 | 1021.1 |
| 20260901004215 | 68 | 90 | 1.0 | 1.0 | 0.00 | 0.00 | 0.00 | 39 | 1021.2 |
| 20260901003709 | 68 | 144 | 1.0 | 2.0 | 0.00 | 0.00 | 0.00 | 42 | 1021.2 |
| 20260901003209 | 68 | 92 | 1.0 | 1.0 | 0.00 | 0.00 | 0.00 | 42 | 1021.6 |
| 20260901002703 | 68 | 151 | 0.0 | 1.0 | 0.00 | 0.00 | 0.00 | 41 | 1021.5 |
| 20260901002158 | 68 | 184 | 3.0 | 7.0 | 0.00 | 0.00 | 0.00 | 41 | 1021.3 |
| 20260901001653 | 68 | 150 | 3.0 | 5.0 | 0.00 | 0.00 | 0.00 | 42 | 1021.1 |
| 20260901001148 | 68 | 199 | 1.0 | 2.0 | 0.00 | 0.00 | 0.00 | 43 | 1021.2 |
| 20260901000638 | 70 | 199 | 1.0 | 2.0 | 0.00 | 0.00 | 0.00 | 42 | 1020.9 |
| 20260901000133 | 70 | 199 | 3.0 | 3.0 | 0.00 | 0.00 | 0.00 | 36 | 1020.7 |
| 20260831235627 | 70 | 176 | 2.0 | 2.0 | 0.00 | 0.00 | 0.00 | 37 | 1020.6 |
| 20260831235122 | 70 | 200 | 2.0 | 3.0 | 0.00 | 0.00 | 0.00 | 38 | 1020.9 |
| 20260831234621 | 70 | 170 | 2.0 | 5.0 | 0.00 | 0.00 | 0.00 | 39 | 1020.7 |
| 20260831234118 | 71 | 186 | 3.0 | 5.0 | 0.00 | 0.00 | 0.00 | 37 | 1020.5 |
| 20260831233613 | 73 | 188 | 6.0 | 9.0 | 0.00 | 0.00 | 0.00 | 34 | 1020.3 |
| 20260831233108 | 74 | 51 | 0.0 | 1.0 | 0.00 | 0.00 | 0.00 | 33 | 1020.0 |
| 20260831232603 | 74 | 51 | 0.0 | 0.0 | 0.00 | 0.00 | 0.00 | 32 | 1020.0 |
| 20260831232059 | 75 | 51 | 0.0 | 0.0 | 0.00 | 0.00 | 0.00 | 31 | 1019.8 |
| 20260831231555 | 76 | 51 | 0.0 | 0.0 | 0.00 | 0.00 | 0.00 | 37 | 1019.7 |
| 20260831231050 | 76 | 51 | 0.0 | 0.0 | 0.00 | 0.00 | 0.00 | 30 | 1019.9 |
| 20260831230545 | 77 | 50 | 0.0 | 0.0 | 0.00 | 0.00 | 0.00 | 30 | 1019.8 |
| 20260831230040 | 77 | 61 | 0.0 | 1.0 | 0.00 | 0.00 | 0.00 | 28 | 1019.9 |
| 20260831225535 | 77 | 40 | 1.0 | 1.0 | 0.00 | 0.00 | 0.00 | 29 | 1019.7 |
| 20260831225030 | 77 | 25 | 0.0 | 1.0 | 0.00 | 0.00 | 0.00 | 29 | 1019.9 |
| 20260831224525 | 77 | 24 | 1.0 | 1.0 | 0.00 | 0.00 | 0.00 | 26 | 1019.9 |
| 20260831224020 | 78 | 55 | 1.0 | 2.0 | 0.00 | 0.00 | 0.00 | 25 | 1019.4 |
| 20260831223515 | 78 | 58 | 1.0 | 5.0 | 0.00 | 0.00 | 0.00 | 27 | 1019.7 |
| 20260831223012 | 78 | 68 | 1.0 | 1.0 | 0.00 | 0.00 | 0.00 | 27 | 1019.9 |
| 20260831222508 | 78 | 80 | 0.0 | 2.0 | 0.00 | 0.00 | 0.00 | 26 | 1019.8 |
| 20260831222007 | 79 | 214 | 1.0 | 3.0 | 0.00 | 0.00 | 0.00 | 27 | 1019.8 |
| 20260831221503 | 79 | 83 | 2.0 | 2.0 | 0.00 | 0.00 | 0.00 | 27 | 1019.9 |
| 20260831220958 | 79 | 181 | 1.0 | 2.0 | 0.00 | 0.00 | 0.00 | 24 | 1020.0 |
| 20260831220453 | 78 | 263 | 4.0 | 3.0 | 0.00 | 0.00 | 0.00 | 22 | 1019.8 |
| 20260831215948 | 79 | 142 | 1.0 | 1.0 | 0.00 | 0.00 | 0.00 | 22 | 1020.1 |
| 20260831215444 | 81 | 245 | 1.0 | 2.0 | 0.00 | 0.00 | 0.00 | 21 | 1020.0 |
| 20260831214940 | 80 | 68 | 1.0 | 2.0 | 0.00 | 0.00 | 0.00 | 24 | 1020.0 |
| 20260831214437 | 79 | 142 | 0.0 | 1.0 | 0.00 | 0.00 | 0.00 | 24 | 1020.1 |
| 20260831213933 | 79 | 240 | 2.0 | 5.0 | 0.00 | 0.00 | 0.00 | 23 | 1020.1 |
| 20260831213429 | 79 | 351 | 2.0 | 3.0 | 0.00 | 0.00 | 0.00 | 25 | 1020.0 |
| 20260831212929 | 79 | 62 | 1.0 | 3.0 | 0.00 | 0.00 | 0.00 | 25 | 1020.4 |
| 20260831212426 | 79 | 67 | 1.0 | 3.0 | 0.00 | 0.00 | 0.00 | 27 | 1020.4 |
| 20260831211925 | 79 | 93 | 1.0 | 5.0 | 0.00 | 0.00 | 0.00 | 26 | 1020.5 |
| 20260831211420 | 80 | 46 | 3.0 | 3.0 | 0.00 | 0.00 | 0.00 | 24 | 1020.5 |
| 20260831210914 | 79 | 192 | 1.0 | 3.0 | 0.00 | 0.00 | 0.00 | 28 | 1021.0 |
| 20260831210409 | 80 | 275 | 4.0 | 5.0 | 0.00 | 0.00 | 0.00 | 23 | 1020.7 |
| 20260831205905 | 79 | 94 | 1.0 | 3.0 | 0.00 | 0.00 | 0.00 | 25 | 1020.5 |
| 20260831205400 | 78 | 40 | 5.0 | 6.0 | 0.00 | 0.00 | 0.00 | 27 | 1020.7 |
| 20260831204855 | 78 | 308 | 4.0 | 6.0 | 0.00 | 0.00 | 0.00 | 25 | 1020.7 |
| 20260831204354 | 79 | 129 | 1.0 | 3.0 | 0.00 | 0.00 | 0.00 | 25 | 1020.7 |
| 20260831203854 | 79 | 53 | 0.0 | 2.0 | 0.00 | 0.00 | 0.00 | 25 | 1021.1 |
| 20260831203348 | 78 | 255 | 1.0 | 2.0 | 0.00 | 0.00 | 0.00 | 22 | 1020.9 |
| 20260831202846 | 78 | 68 | 0.0 | 1.0 | 0.00 | 0.00 | 0.00 | 27 | 1021.1 |
| 20260831202336 | 78 | 11 | 3.0 | 5.0 | 0.00 | 0.00 | 0.00 | 22 | 1020.9 |
| 20260831201836 | 77 | 93 | 1.0 | 1.0 | 0.00 | 0.00 | 0.00 | 25 | 1020.9 |
| 20260831201335 | 77 | 63 | 0.0 | 1.0 | 0.00 | 0.00 | 0.00 | 27 | 1021.0 |
| 20260831200831 | 77 | 324 | 1.0 | 2.0 | 0.00 | 0.00 | 0.00 | 24 | 1021.2 |
| 20260831200326 | 76 | 168 | 1.0 | 2.0 | 0.00 | 0.00 | 0.00 | 25 | 1021.5 |
| 20260831195821 | 76 | 144 | 2.0 | 3.0 | 0.00 | 0.00 | 0.00 | 24 | 1021.2 |
| 20260831195317 | 76 | 114 | 2.0 | 2.0 | 0.00 | 0.00 | 0.00 | 29 | 1021.5 |
| 20260831194812 | 76 | 94 | 1.0 | 3.0 | 0.00 | 0.00 | 0.00 | 29 | 1021.5 |
| 20260831194307 | 77 | 102 | 2.0 | 2.0 | 0.00 | 0.00 | 0.00 | 24 | 1021.6 |
| 20260831193806 | 77 | 192 | 0.0 | 1.0 | 0.00 | 0.00 | 0.00 | 25 | 1021.9 |
| 20260831193301 | 77 | 80 | 1.0 | 2.0 | 0.00 | 0.00 | 0.00 | 26 | 1021.8 |
| 20260831192756 | 76 | 269 | 1.0 | 5.0 | 0.00 | 0.00 | 0.00 | 28 | 1021.9 |
| 20260831192251 | 76 | 54 | 2.0 | 2.0 | 0.00 | 0.00 | 0.00 | 26 | 1022.1 |
| 20260831191748 | 75 | 178 | 1.0 | 3.0 | 0.00 | 0.00 | 0.00 | 25 | 1022.2 |
| 20260831191244 | 75 | 161 | 2.0 | 1.0 | 0.00 | 0.00 | 0.00 | 30 | 1022.1 |
| 20260831190739 | 75 | 155 | 0.0 | 1.0 | 0.00 | 0.00 | 0.00 | 30 | 1021.8 |
| 20260831190238 | 74 | 155 | 1.0 | 1.0 | 0.00 | 0.00 | 0.00 | 30 | 1022.2 |
| 20260831185733 | 74 | 47 | 2.0 | 2.0 | 0.00 | 0.00 | 0.00 | 31 | 1022.5 |
| 20260831185229 | 73 | 54 | 1.0 | 2.0 | 0.00 | 0.00 | 0.00 | 37 | 1022.5 |
| 20260831184728 | 73 | 30 | 0.0 | 2.0 | 0.00 | 0.00 | 0.00 | 44 | 1022.5 |
| 20260831184224 | 72 | 66 | 0.0 | 2.0 | 0.00 | 0.00 | 0.00 | 36 | 1022.8 |
| 20260831183723 | 71 | 37 | 1.0 | 3.0 | 0.00 | 0.00 | 0.00 | 37 | 1022.9 |
| 20260831183218 | 70 | 169 | 0.0 | 2.0 | 0.00 | 0.00 | 0.00 | 40 | 1022.5 |
| 20260831182717 | 70 | 163 | 1.0 | 1.0 | 0.00 | 0.00 | 0.00 | 39 | 1022.8 |
| 20260831182213 | 68 | 145 | 1.0 | 2.0 | 0.00 | 0.00 | 0.00 | 45 | 1022.9 |
| 20260831181712 | 68 | 99 | 1.0 | 2.0 | 0.00 | 0.00 | 0.00 | 43 | 1022.8 |
| 20260831181208 | 68 | 168 | 1.0 | 5.0 | 0.00 | 0.00 | 0.00 | 45 | 1023.2 |
| 20260831180703 | 68 | 306 | 2.0 | 3.0 | 0.00 | 0.00 | 0.00 | 41 | 1023.3 |
| 20260831180158 | 68 | 323 | 3.0 | 3.0 | 0.00 | 0.00 | 0.00 | 40 | 1023.3 |
| 20260831175657 | 68 | 66 | 1.0 | 3.0 | 0.00 | 0.00 | 0.00 | 39 | 1023.2 |
| 20260831175154 | 68 | 253 | 1.0 | 2.0 | 0.00 | 0.00 | 0.00 | 41 | 1023.3 |
| 20260831174654 | 67 | 64 | 1.0 | 1.0 | 0.00 | 0.00 | 0.00 | 38 | 1023.4 |
| 20260831174149 | 65 | 65 | 0.0 | 2.0 | 0.00 | 0.00 | 0.00 | 40 | 1023.5 |
| 20260831173647 | 65 | 144 | 1.0 | 1.0 | 0.00 | 0.00 | 0.00 | 39 | 1023.8 |
| 20260831173144 | 65 | 159 | 2.0 | 2.0 | 0.00 | 0.00 | 0.00 | 39 | 1023.8 |
| 20260831172643 | 65 | 47 | 2.0 | 3.0 | 0.00 | 0.00 | 0.00 | 41 | 1023.8 |
| 20260831172138 | 65 | 123 | 1.0 | 1.0 | 0.00 | 0.00 | 0.00 | 43 | 1023.6 |
| 20260831171633 | 64 | 63 | 0.0 | 2.0 | 0.00 | 0.00 | 0.00 | 42 | 1023.9 |
| 20260831171131 | 64 | 62 | 1.0 | 2.0 | 0.00 | 0.00 | 0.00 | 42 | 1023.9 |
| 20260831170626 | 63 | 69 | 0.0 | 2.0 | 0.00 | 0.00 | 0.00 | 42 | 1023.9 |
| 20260831170124 | 62 | 130 | 0.0 | 1.0 | 0.00 | 0.00 | 0.00 | 51 | 1023.6 |
| 20260831165619 | 61 | 48 | 1.0 | 2.0 | 0.00 | 0.00 | 0.00 | 46 | 1023.6 |
| 20260831165116 | 60 | 20 | 1.0 | 3.0 | 0.00 | 0.00 | 0.00 | 47 | 1023.6 |